Starlink 32797

operational
NORAD ID: 62843 Int'l Des: 2025-019 Owner: SPXS Country: US Constellation: starlink
LEOCIRCULAR

About Starlink 32797

Description loading...

Live Position

Loading 3D Globe...

Upcoming Passes

Altitude History

Altitude vs Time

uPlot chart will show altitude changes over time

Two-Line Element Set

1 62843U 25019Q 25257.35512907 .00015963 00000-0 58829-3 0 9992
2 62843 43.0017 4.7564 0000933 270.9934 89.0810 15.27583371 35281
Epoch: Sep 14, 2025 • Age: 27 hours

Current Status

Altitude 482.3 km
Velocity 7.63 km/s
Sub-Earth Point 15.35°N, 11.68°W
Launch Date Jan 27, 2025
Age 0.6 years
Type internet

Technical Details

Classification Payload
Mass 730.00 kg
Dry Mass 700.00 kg
Total Mass 730.00 kg
Length 0.30 m
Diameter 4.10 m
Span 29.00 m
Shape Box + pan
Manufacturer SPXS
Bus Type Starlink V2M
Phase Status In Orbit
Owner/State SPXS/US

Large Constellations

Loading constellations...